{"data":{"norad_id":43032,"intl_designator":"2017-076A","name":"COSMOS 2524","alt_names":[],"object_type":"PAYLOAD","status":"ACTIVE","operator":null,"country":"CIS","launch_date":"2017-12-02","launch_site_code":"PLMSC","launch_vehicle":null,"mission":null,"orbit_class":"UNKNOWN","rcs_meters":null,"size_class":null,"mass_kg":null,"dimensions":null,"purposes":[],"wikipedia_slug":null,"has_3d_model":false,"image_url":null,"decayed_at":null,"tle_current":{"epoch":"2026-09-20T05:14:56.090400Z","epoch_age_seconds":75300,"freshness":"FRESH","line1":"1 43032U 17076A   26263.21870475  .00000141  00000+0  15351-3 0  9999","line2":"2 43032  67.1477 321.2045 0002441 300.1685  59.9158 13.97437698448883","mean_motion":13.97437698,"eccentricity":0.0002441,"inclination_deg":67.1477,"raan_deg":321.2045,"arg_perigee_deg":300.1685,"mean_anomaly_deg":59.9158,"bstar":0.00015351,"rev_number":44888,"period_min":103.04573878756,"perigee_km":900.90425054702,"apogee_km":904.45874613791,"semimajor_km":7280.8184983425,"source":"CELESTRAK","updated_at":"2026-09-20T09:00:14.267588Z"}}}